DW5595 Weather Reports


time (UTC)temp
C
wind
direction
speed
KPH
gust
KPH
rain 1hr
cm
rain 24hr
cm
rain mn
cm
humidity
%
barometer
mb
20260506211525 21 172 6.4 14.5 0.00 0.13 0.13 79 1011.7
20260506210025 21 153 4.8 9.7 0.00 0.13 0.13 80 1011.8
20260506204524 21 127 6.4 11.3 0.00 0.13 0.13 79 1011.9
20260506203026 21 205 1.6 19.3 0.00 0.13 0.13 79 1012.1
20260506201523 21 34 3.2 29.0 0.00 0.13 0.13 79 1012.6
20260506200015 21 153 3.2 14.5 0.00 0.13 0.13 79 1012.6
20260506194524 21 141 1.6 17.7 0.00 0.13 0.13 80 1012.9
20260506193028 21 130 4.8 14.5 0.00 0.13 0.13 82 1012.9
20260506191525 21 123 3.2 20.9 0.00 0.13 0.13 79 1012.7
20260506190022 20 80 3.2 11.3 0.00 0.13 0.13 82 1012.7
20260506184526 20 214 6.4 17.7 0.00 0.13 0.13 81 1012.7
20260506183018 20 225 3.2 12.9 0.00 0.13 0.13 85 1012.6
20260506180016 18 79 3.2 12.9 0.00 0.13 0.13 87 1012.7
20260506174512 18 126 4.8 12.9 0.00 0.13 0.13 88 1012.3
20260506173009 18 180 3.2 12.9 0.08 0.13 0.13 90 1013.1
20260506171507 17 265 1.6 8.0 0.13 0.13 0.13 90 1014.1
20260506164528 17 179 0.0 6.4 0.13 0.13 0.13 89 1014.5
20260506163022 18 78 0.0 3.2 0.05 0.05 0.05 85 1015.1
20260506161515 19 159 0.0 4.8 0.00 0.00 0.00 81 1015.0
20260506160011 20 315 1.6 4.8 0.00 0.00 0.00 76 1014.3
20260506154510 20 60 0.0 14.5 0.00 0.00 0.00 73 1013.9
20260506153007 20 153 6.4 17.7 0.00 0.00 0.00 72 1013.8
20260506151523 20 162 3.2 9.7 0.00 0.00 0.00 73 1013.4
20260506150022 19 216 4.8 19.3 0.00 0.00 0.00 75 1013.4
20260506143016 18 162 4.8 16.1 0.00 0.00 0.00 78 1013.3
20260506141512 18 140 1.6 6.4 0.00 0.00 0.00 76 1013.7
20260506140010 18 192 0.0 4.8 0.00 0.00 0.00 76 1013.7
20260506134507 17 329 1.6 11.3 0.00 0.00 0.00 77 1013.6
20260506133024 17 182 1.6 8.0 0.00 0.00 0.00 78 1013.0
20260506131532 17 146 0.0 11.3 0.00 0.00 0.00 79 1013.0
20260506130018 16 213 6.4 11.3 0.00 0.00 0.00 80 1013.0
20260506124528 16 242 0.0 11.3 0.00 0.00 0.00 81 1013.1
20260506123015 15 128 1.6 8.0 0.00 0.00 0.00 83 1013.1
20260506121510 15 168 3.2 8.0 0.00 0.00 0.00 83 1013.1
20260506120022 15 134 0.0 6.4 0.00 0.00 0.00 83 1013.6
20260506114524 15 144 0.0 3.2 0.00 0.00 0.00 1014.1
20260506113028 15 132 0.0 4.8 0.00 0.00 0.00 1013.4
20260506111522 14 156 0.0 4.8 0.00 0.00 0.00 84 1013.2
20260506110030 14 128 1.6 3.2 0.00 0.00 0.00 84 1013.0
20260506103020 15 120 0.0 6.4 0.00 0.00 0.00 82 1012.8
20260506101533 15 171 0.0 4.8 0.00 0.00 0.00 83 1012.7
20260506100024 15 154 1.6 11.3 0.00 0.00 0.00 82 1012.4
20260506094527 15 167 1.6 9.7 0.00 0.00 0.00 81 1012.9
20260506093031 15 149 1.6 11.3 0.00 0.00 0.00 80 1012.5
20260506090021 16 200 1.6 6.4 0.00 0.00 0.00 78 1012.9
20260506084515 15 140 3.2 11.3 0.00 0.00 0.00 79 1012.7
20260506081515 16 133 4.8 14.5 0.00 0.00 0.00 78 1013.1
20260506073021 16 149 0.0 3.2 0.00 0.00 0.00 77 1013.1
20260506071519 16 18 0.0 3.2 0.00 0.00 0.00 76 1013.2
20260506061526 17 205 6.4 17.7 0.00 0.00 0.00 71 1012.4
20260506044512 12 159 0.0 3.2 0.00 0.00 0.00 83 1013.6
20260506043028 12 173 0.0 0.0 0.00 0.00 0.00 82 1013.4
20260506041526 12 173 0.0 0.0 0.00 0.00 0.00 82 1013.5
20260506040023 13 173 0.0 0.0 0.00 0.00 0.00 82 1013.4
20260506034518 13 173 0.0 0.0 0.00 0.00 0.00 82 1013.3
20260506033025 13 181 0.0 0.0 0.00 0.00 0.00 81 1013.5
20260506031532 13 184 0.0 0.0 0.00 0.00 0.00 79 1013.5
20260506024529 14 184 0.0 0.0 0.00 0.00 0.00 1013.6
20260506023028 15 184 0.0 0.0 0.00 0.00 0.00 1013.6
20260506021529 15 184 0.0 0.0 0.00 0.00 0.00 73 1013.6
20260506020022 16 184 0.0 0.0 0.00 0.00 0.00 71 1013.8
20260506014523 16 184 0.0 0.0 0.00 0.00 0.00 65 1013.8
20260506013019 17 184 0.0 0.0 0.00 0.00 0.00 64 1013.5
20260506011527 17 184 0.0 0.0 0.00 0.00 0.00 60 1013.5
20260506010046 18 184 0.0 0.0 0.00 0.00 0.00 55 1013.4
20260506004528 20 184 0.0 0.0 0.00 0.00 0.00 53 1013.3
20260506003024 20 184 0.0 0.0 0.00 0.00 0.00 49 1013.3
20260506001526 21 161 0.0 4.8 0.00 0.00 0.00 47 1013.1
20260506000020 21 167 0.0 3.2 0.00 0.00 0.00 46 1013.2
20260505234519 22 146 0.0 6.4 0.00 0.00 0.00 43 1013.1
20260505231513 23 144 3.2 12.9 0.00 0.00 0.00 42 1012.7
20260505230008 23 148 3.2 16.1 0.00 0.00 0.00 40 1012.9
20260505224522 23 174 1.6 16.1 0.00 0.00 0.00 38 1013.0
20260505223021 23 157 4.8 17.7 0.00 0.00 0.00 39 1013.1
20260505221523 23 175 4.8 17.7 0.00 0.00 0.00 38 1012.9
20260505220025 23 167 4.8 16.1 0.00 0.00 0.00 38 1012.9
20260505214516 24 143 6.4 19.3 0.00 0.00 0.00 37 1013.0